Terminal Aerodrome Forecast
Issued by NWS Houston/Galveston, TX

Home | Current Version | Previous Version | Text Only | Print | Product List | Glossary On
Versions: 1 2 3 4 5 6 7 8 9 10 11 12 13 14 15 16 17 18
000
FTUS44 KHGX 261523 AAB
TAFCLL
TAF AMD
KCLL 261523Z 2615/2712 04006KT P6SM BKN012
     FM261600 VRB04KT P6SM VCSH SCT012 BKN030
     FM261700 14006KT P6SM VCTS SCT050CB
      TEMPO 2619/2623 VRB10G20KT 3SM TSRA BR BKN035CB
     FM270100 VRB04KT P6SM FEW035 BKN120
     FM271000 VRB02KT P6SM SCT007 SCT250=

USA.gov is the U.S. government's official web portal to all federal, state and local government web resources and services.